greatsong.net alexa rank chart, greatsong.net alexa rank daily changes

greatsong.net alexa rank chart, greatsong.net alexa rank daily changes

greatsong.net
Actual rank:
97 859

RANK HISTORY

Date Rank Diff
2017/01/16 97 859 -2 237
2017/01/15 100 096 -171
2017/01/14 100 267 +1 460
2017/01/13 98 807 +51
2017/01/12 98 756 -835
2017/01/11 99 591 +1 016
2017/01/10 98 575 -386
2017/01/09 98 961 +1 169
2017/01/08 97 792 -2 314
2017/01/07 100 106 +106
2017/01/06 100 000 -69
2017/01/05 100 069 -273
2017/01/04 100 342 -130
2017/01/03 100 472 +2 275
2017/01/02 98 197 +310
2017/01/01 97 887 -123
2016/12/31 98 010 -556
2016/12/30 98 566 -954
2016/12/29 99 520 -256
2016/12/28 99 776 -3 367
2016/12/27 103 143 -1 302
2016/12/26 104 445 -3 377
2016/12/25 107 822 -920
2016/12/24 108 742 -1 836
2016/12/23 110 578 -1 136
2016/12/22 111 714 -2 113
2016/12/21 113 827 -891
2016/12/20 114 718 +726
2016/12/19 113 992 +727
2016/12/18 113 265 +3 739
2016/12/17 109 526 +1 671
2016/12/16 107 855 -1 822
2016/12/15 109 677 +1 918
2016/12/14 107 759 -59
2016/12/13 107 818 +2 163
2016/12/12 105 655 -614
2016/12/11 106 269 -1 301
2016/12/10 107 570 -378
2016/12/09 107 948 -399
2016/12/08 108 347 +1 230
2016/12/07 107 117 +1 236
2016/12/06 105 881 -538
2016/12/05 106 419 +106
2016/12/04 106 313 -3 379
2016/12/02 109 692 +230
2016/12/01 109 462 -1 055
2016/11/30 110 517 +32
2016/11/29 110 485 +599
2016/11/28 109 886 +1 739
2016/11/27 108 147 +544
2016/11/26 107 603 -2 928
2016/11/25 110 531 -2 369
2016/11/24 112 900 -271
2016/11/23 113 171 +1 513
2016/11/19 111 658 -3 190
2016/11/18 114 848 -3 910
2016/11/17 118 758

WIDGET FOR YOUR SITE

DOMAINS WITH THE NEAREST RANK

Domain Rank
controllerchaos.com 97 854
yugiohprices.com 97 855
tinkertry.com 97 856
initial-website.com 97 857
allears.net 97 858
greatsong.net 97 859
jukebox.fr 97 860
4glaza.ru 97 861
pocha3.com 97 862
cielotv.it 97 863
userzoom.com 97 864

DOMAINS WITH THE NEAREST RANK BY TLD .net

Domain Rank
pornobeeg.net 97 826
impacthub.net 97 838
cnoticias.net 97 849
xvideos-hq.net 97 851
allears.net 97 858
greatsong.net 97 859
sonokinetic.net 97 912
winnou.net 97 947
x776636.net 97 949
sexcomix.net 97 950
hindimp3download.net 97 951